Coningsby, United Kingdom

12:09 AM BST on May 01, 2017 (GMT +0100)
Coningsby Air Base

Weather History for EGXC - June, 2013

Change the Weather History Date:

Thursday, June 13, 2013

  Actual Average Record
Temperature  
Mean Temperature 58 °F -  
Max Temperature 66 °F - - ()
Min Temperature 51 °F - - ()
Degree Days  
Heating Degree Days 6    
Growing Degree Days 8 (Base 50)    
Moisture  
Dew Point 52 °F    
Average Humidity 81    
Maximum Humidity 94    
Minimum Humidity 63    
Precipitation  
Precipitation 0.12 in - - ()
Sea Level Pressure  
Sea Level Pressure 29.73 in    
Wind  
Wind Speed 15 mph ()    
Max Wind Speed 23 mph    
Max Gust Speed 31 mph    
Visibility 8.1 miles    
Events Rain , Thunderstorm    
T = Trace of Precipitation, MM = Missing Value Source: Averaged Metar Reports

Daily Weather History Graph

Daily Weather History Graph

Search for Another Location

Airport or City:

Trip Planner

Search our weather history database for the weather conditions in past years. The results will help you decide how hot, cold, wet, or windy it might be!

Date:

Astronomy

Jun. 13, 2013 Rise Set
Actual Time 4:34 AM BST 9:27 PM BST
Civil Twilight 3:42 AM BST 10:19 PM BST
Nautical Twilight 2:15 AM BST 11:47 PM BST
Astronomical Twilight Sun does not set Sun does not set
Moon 9:28 AM BST (6/13) 11:49 PM BST (6/13)
Length of Visible Light 18h 36m
Length of Day
16h 53m
Waxing Crescent, 20% of the Moon is Illuminated
Jun 13
Waxing Crescent
Jun 16
First Quarter
Jun 23
Full
Jun 30
Last Quarter
Jul 8
New

Hourly Weather History & Observations

Time (BST) Temp. Dew Point Humidity Pressure Visibility Wind Dir Wind Speed Gust Speed Precip Events Conditions
12:50 AM 59 °F 56 °F 88% 29.71 in 19 mi SSW 16.1 mph - - Rain Light Rain
12:50 AM 59.0 °F 57.2 °F 94% 29.68 in 6.2 mi SSW 16.1 mph - N/A   Mostly Cloudy
1:50 AM 59.0 °F 55.4 °F 88% 29.68 in 6.2 mi SSW 17.3 mph - N/A   Mostly Cloudy
2:50 AM 57.2 °F 53.6 °F 88% 29.68 in 6.2 mi SSW 13.8 mph - N/A   Mostly Cloudy
3:50 AM 56 °F 52 °F 82% 29.68 in 16 mi SSW 17.3 mph - -   Mostly Cloudy
3:50 AM 55.4 °F 51.8 °F 88% 29.68 in 6.2 mi SSW 17.3 mph - N/A   Mostly Cloudy
4:50 AM 55.4 °F 51.8 °F 88% 29.65 in 6.2 mi SSW 17.3 mph - N/A   Mostly Cloudy
5:50 AM 55.4 °F 51.8 °F 88% 29.65 in 6.2 mi SSW 13.8 mph - N/A   Mostly Cloudy
6:50 AM 57 °F 51 °F 74% 29.67 in 16 mi SSW 17.3 mph - -   Mostly Cloudy
6:50 AM 57.2 °F 51.8 °F 82% 29.65 in 6.2 mi SSW 17.3 mph - N/A   Mostly Cloudy
7:50 AM 59.0 °F 51.8 °F 77% 29.65 in 6.2 mi SW 18.4 mph - N/A   Mostly Cloudy
8:50 AM 59.0 °F 53.6 °F 82% 29.65 in 6.2 mi SSW 23.0 mph - N/A   Mostly Cloudy
9:50 AM 62 °F 53 °F 63% 29.68 in 16 mi SW 19.6 mph - -   Mostly Cloudy
9:50 AM 60.8 °F 53.6 °F 77% 29.65 in 6.2 mi SW 19.6 mph - N/A   Mostly Cloudy
10:50 AM 62.6 °F 53.6 °F 72% 29.65 in 6.2 mi SW 20.7 mph - N/A   Mostly Cloudy
11:50 AM 64.4 °F 53.6 °F 68% 29.65 in 6.2 mi SW 20.7 mph - N/A   Mostly Cloudy
12:50 PM 60 °F 52 °F 69% 29.68 in 22 mi West 12.7 mph - - Rain Light Rain Showers
12:50 PM 60.8 °F 51.8 °F 72% 29.65 in 6.2 mi West 12.7 mph - N/A   Mostly Cloudy
1:50 PM 66.2 °F 57.2 °F 73% 29.65 in 6.2 mi WSW 11.5 mph - N/A   Mostly Cloudy
2:50 PM 60.8 °F 57.2 °F 88% 29.68 in 6.2 mi WSW 18.4 mph 31.1 mph N/A Rain Light Rain Showers
3:37 PM 57.2 °F 53.6 °F 88% 29.68 in 6.2 mi WSW 18.4 mph - N/A Rain , Thunderstorm Thunderstorms and Rain
3:50 PM 56 °F 52 °F 83% 29.72 in 7 mi WNW 18.4 mph - - Rain , Thunderstorm Thunderstorms and Rain
3:50 PM 55.4 °F 51.8 °F 88% 29.71 in 6.2 mi WNW 18.4 mph - N/A Rain , Thunderstorm Light Thunderstorms and Rain
4:10 PM 55.4 °F 53.6 °F 94% 29.71 in 6.2 mi WNW 13.8 mph - N/A Rain Light Rain Showers
4:50 PM 55.4 °F 50.0 °F 82% 29.74 in 6.2 mi West 20.7 mph - N/A   Mostly Cloudy
5:50 PM 55.4 °F 48.2 °F 77% 29.80 in 6.2 mi West 20.7 mph - N/A   Mostly Cloudy
6:50 PM 56 °F 47 °F 65% 29.83 in 25 mi West 18.4 mph - -   Partly Cloudy
6:50 PM 55.4 °F 48.2 °F 77% 29.83 in 6.2 mi West 18.4 mph - N/A   Mostly Cloudy
7:50 PM 57.2 °F 48.2 °F 72% 29.86 in 6.2 mi West 12.7 mph - N/A   Partly Cloudy
8:50 PM 53.6 °F 48.2 °F 82% 29.86 in 6.2 mi WSW 11.5 mph - N/A   Partly Cloudy
9:50 PM 51 °F 48 °F 85% 29.90 in 19 mi WSW 10.4 mph - -   Scattered Clouds
9:50 PM 51.8 °F 48.2 °F 88% 29.89 in - WSW 10.4 mph - N/A   Clear
10:50 PM 53.6 °F 48.2 °F 82% 29.92 in - SW 9.2 mph - N/A   Clear
11:50 PM 53.6 °F 46.4 °F 77% 29.92 in - WSW 13.8 mph - N/A   Clear